TimeCST,TemperatureF,Dew PointF,Humidity,Sea Level PressureIn,VisibilityMPH,Wind Direction,Wind SpeedMPH,Gust SpeedMPH,PrecipitationIn,Events,Conditions,WindDirDegrees,DateUTC
12:31 AM,66.9,59.0,76,29.42,10.0,South,24.2,33.4,N/A,,Overcast,190,2013-11-17 06:31:00
12:53 AM,66.0,59.0,78,29.39,10.0,South,18.4,33.4,N/A,,Mostly Cloudy,190,2013-11-17 06:53:00
1:13 AM,66.0,59.0,78,29.39,10.0,South,19.6,31.1,N/A,,Scattered Clouds,190,2013-11-17 07:13:00
1:53 AM,66.0,59.0,78,29.36,10.0,South,16.1,28.8,N/A,,Partly Cloudy,190,2013-11-17 07:53:00
2:53 AM,66.0,59.0,78,29.35,10.0,SSW,19.6,32.2,N/A,,Clear,210,2013-11-17 08:53:00
3:53 AM,66.0,59.0,78,29.34,10.0,SSW,16.1,29.9,N/A,,Partly Cloudy,210,2013-11-17 09:53:00
4:53 AM,64.9,59.0,81,29.33,10.0,SSW,18.4,29.9,N/A,,Partly Cloudy,200,2013-11-17 10:53:00
5:53 AM,64.0,57.9,80,29.33,10.0,SSW,13.8,23.0,N/A,,Clear,210,2013-11-17 11:53:00
6:53 AM,64.0,55.0,73,29.35,10.0,SW,15.0,27.6,N/A,,Clear,220,2013-11-17 12:53:00
7:53 AM,60.1,42.1,51,29.41,10.0,West,20.7,28.8,N/A,,Clear,270,2013-11-17 13:53:00
8:29 AM,54.0,37.0,53,29.50,10.0,WNW,17.3,36.8,N/A,,Partly Cloudy,300,2013-11-17 14:29:00
8:53 AM,53.1,35.1,50,29.53,10.0,NW,23.0,33.4,N/A,,Clear,310,2013-11-17 14:53:00
9:53 AM,57.0,34.0,42,29.59,10.0,WNW,12.7,20.7,N/A,,Clear,300,2013-11-17 15:53:00
10:53 AM,59.0,36.0,42,29.62,10.0,West,12.7,20.7,N/A,,Clear,260,2013-11-17 16:53:00
11:53 AM,62.1,34.0,35,29.62,10.0,WSW,17.3,28.8,N/A,,Clear,250,2013-11-17 17:53:00
12:53 PM,64.9,23.0,20,29.61,10.0,West,25.3,35.7,N/A,,Clear,270,2013-11-17 18:53:00
1:53 PM,63.0,16.0,16,29.65,10.0,West,23.0,42.6,N/A,,Clear,280,2013-11-17 19:53:00
2:53 PM,62.1,17.1,18,29.69,10.0,West,20.7,36.8,N/A,,Clear,270,2013-11-17 20:53:00
3:53 PM,61.0,14.0,16,29.75,10.0,West,18.4,33.4,N/A,,Clear,280,2013-11-17 21:53:00
4:53 PM,57.9,21.9,25,29.80,10.0,West,12.7,24.2,N/A,,Clear,280,2013-11-17 22:53:00
5:53 PM,55.0,25.0,31,29.86,10.0,WNW,8.1,17.3,N/A,,Clear,290,2013-11-17 23:53:00
6:53 PM,53.1,28.0,38,29.90,10.0,West,8.1,-,N/A,,Clear,280,2013-11-18 00:53:00
7:53 PM,50.0,28.9,44,29.94,10.0,WNW,5.8,-,N/A,,Clear,290,2013-11-18 01:53:00
8:53 PM,50.0,32.0,50,29.98,10.0,WNW,10.4,-,N/A,,Clear,300,2013-11-18 02:53:00
9:53 PM,48.9,32.0,52,30.02,10.0,NW,11.5,-,N/A,,Clear,310,2013-11-18 03:53:00
10:53 PM,46.9,33.1,59,30.06,10.0,NW,6.9,-,N/A,,Clear,310,2013-11-18 04:53:00
11:53 PM,45.0,33.1,63,30.07,10.0,NW,8.1,-,N/A,,Clear,320,2013-11-18 05:53:00